Wind_Speed
9 10 9 10 10 10 10 11 11 11 12 12 12 12 12 12 13 12 13 13 13 13 13 13 12 12 13 12 12 12 12 11 11 12 12 13 13 13 13 13 13 13 13 13
10 10 10 10 10 10 10 11 11 11 12 12 11 11 12 12 12 12 12 12 13 12 12 12 12 12 12 12 12 12 12 12 12 12 13 13 13 13 13 14 14 14 14 14
10 11 10 10 10 11 11 12 12 12 12 12 12 11 12 12 12 12 12 12 12 12 12 12 12 12 13 13 13 12 12 12 13 13 13 13 13 13 13 13 13 14 14 14
10 10 11 10 11 12 12 12 12 13 13 12 12 12 12 12 11 11 12 12 12 12 12 12 13 13 13 13 14 13 14 14 14 14 14 14 14 13 13 13 14 14 14 15
11 11 11 11 11 12 13 13 13 12 12 12 12 12 10 11 11 11 11 11 11 12 12 13 13 14 14 14 14 14 15 15 15 16 15 15 15 14 14 14 14 14 14 15
11 11 11 11 11 12 13 13 13 13 12 12 12 12 11 11 11 11 11 12 12 12 13 13 14 14 15 15 15 15 16 16 16 15 15 15 15 15 15 15 15 15 15 15
12 12 12 12 12 13 13 13 13 13 13 13 12 12 11 11 11 11 11 12 13 12 12 13 14 14 15 15 16 16 17 17 17 17 16 16 16 16 15 15 15 15 15 15
13 13 13 13 13 13 13 13 13 14 14 12 11 11 11 11 11 11 11 12 13 13 13 13 13 14 14 14 15 16 16 17 17 17 17 16 16 17 16 15 16 16 16 16
14 13 13 13 13 13 13 13 13 14 13 13 12 11 10 11 12 12 12 13 14 13 13 14 14 14 15 15 15 16 16 17 17 17 16 15 16 16 16 17 17 17 16 16
15 14 14 14 14 13 13 13 13 14 14 13 12 12 11 12 12 12 12 13 14 14 14 14 15 16 16 16 16 17 17 17 16 16 16 16 16 16 16 16 16 17 17 17
15 16 15 15 14 14 14 14 14 14 14 14 13 12 12 13 13 14 14 14 15 15 15 15 16 17 17 17 17 17 18 18 17 17 17 17 16 16 16 16 17 17 18 17
16 16 16 16 16 15 15 15 15 14 14 14 15 13 13 13 14 15 15 16 16 17 18 17 17 17 17 17 18 18 18 18 18 18 18 18 18 17 17 17 18 18 18 18
16 16 16 16 16 15 16 16 16 15 15 15 15 14 14 15 15 16 17 17 18 18 18 18 18 18 18 18 18 18 18 18 19 19 19 19 19 19 19 19 19 19 20 19
16 17 17 16 16 16 16 16 16 16 16 16 16 15 15 16 16 17 18 18 19 19 18 18 19 19 19 18 19 19 18 19 19 20 20 20 21 20 20 20 20 21 21 21
17 17 17 16 16 16 16 16 17 17 17 17 16 16 16 16 17 18 18 19 19 20 20 20 20 20 20 20 20 19 19 20 20 20 20 21 21 21 21 21 21 22 22 23
17 17 17 16 16 16 16 16 17 17 17 17 17 16 17 17 18 18 19 19 20 21 21 21 21 21 21 21 21 21 20 20 21 21 21 21 21 21 21 21 22 22 22 23
18 18 18 17 17 17 16 16 17 17 17 17 17 16 17 18 18 19 20 20 20 21 21 22 21 21 21 21 21 21 21 21 21 22 22 22 22 22 22 21 21 22 22 23
18 19 19 19 18 19 18 18 19 19 18 18 18 17 17 18 18 19 20 20 21 21 22 22 22 22 22 22 22 22 22 21 21 22 22 22 22 23 23 22 22 22 22 22
20 20 20 20 20 20 19 19 20 20 19 20 20 20 20 20 20 21 21 21 21 21 21 22 22 22 23 23 24 24 24 23 23 22 22 22 22 23 24 24 24 23 23 23
21 21 21 22 22 21 20 20 21 21 21 22 22 22 22 22 22 22 23 23 23 22 22 22 22 23 24 24 25 24 24 24 24 24 24 23 24 24 25 25 26 26 25 25
23 23 23 23 23 22 22 22 22 22 23 23 23 24 24 24 24 24 24 24 24 24 23 23 23 24 24 24 24 24 24 24 24 24 25 25 25 25 26 26 26 26 26 26
24 24 23 23 23 22 22 23 24 24 24 24 24 25 25 25 26 26 26 25 25 25 24 24 24 24 24 24 25 25 24 24 24 25 25 26 26 27 28 28 28 28 28 27
24 25 25 24 23 23 23 24 24 24 25 25 25 25 26 26 27 27 27 26 26 26 25 24 24 25 25 25 25 25 25 25 25 25 26 27 28 28 29 29 29 30 29 28
25 25 25 25 24 24 24 25 25 25 25 25 26 26 26 27 27 27 26 25 25 25 25 25 25 25 25 25 25 25 26 26 26 26 26 27 29 29 30 29 30 30 30 30
26 26 26 26 25 25 25 25 25 25 26 26 26 27 27 27 26 26 26 25 25 25 25 25 25 25 25 25 26 26 27 27 28 28 29 29 30 30 30 31 31 31 31 31
25 26 26 26 26 26 26 26 26 26 26 26 27 27 27 27 26 26 26 25 25 25 25 25 26 26 26 26 27 28 28 29 29 30 30 30 30 31 31 32 32 33 33 33
Wind_Direction
296 293 287 283 281 281 279 277 278 278 277 276 276 276 276 276 275 272 271 270 270 270 271 273 275 273 272 274 274 273 275 272 267 268 269 270 273 273 272 272 273 274 273 271
294 292 288 285 285 284 281 279 277 277 277 277 276 280 278 276 278 275 272 271 271 272 272 271 271 271 272 274 276 276 275 273 272 270 272 274 275 277 274 272 272 270 269 271
294 293 290 286 282 282 281 279 277 279 279 278 280 282 279 279 279 277 276 274 273 273 271 270 273 275 275 276 278 278 276 273 272 271 271 275 278 281 278 275 272 270 269 271
295 295 294 289 285 282 282 284 282 281 284 284 285 286 282 280 279 279 280 276 272 271 273 274 274 275 277 276 278 278 279 275 272 273 273 275 278 280 278 274 273 272 271 271
296 296 296 296 293 289 287 285 286 286 287 286 287 289 288 283 284 282 281 278 277 276 275 276 278 277 277 277 278 279 280 278 275 276 275 277 279 281 279 274 271 271 272 272
294 295 296 296 295 293 292 289 289 289 290 292 293 292 292 293 288 283 279 278 278 277 274 277 279 280 278 277 278 278 279 280 279 277 280 277 279 281 281 277 271 271 271 271
292 293 295 295 294 294 294 292 293 294 293 295 295 291 292 293 289 284 281 279 279 275 276 281 282 281 280 279 278 277 278 279 279 278 280 278 278 278 278 277 272 270 270 270
290 290 292 292 292 293 293 291 290 290 294 296 294 293 294 292 290 289 286 284 280 275 278 283 286 285 283 282 282 280 279 280 280 280 280 280 279 277 278 278 273 270 268 266
289 289 288 287 288 289 290 290 288 287 290 293 292 292 293 292 290 288 288 286 282 277 277 281 285 287 286 286 287 285 284 283 282 282 282 280 279 279 277 275 271 269 269 268
287 286 285 285 284 284 286 287 285 289 292 292 292 291 293 291 289 288 286 284 282 278 276 278 283 286 288 289 289 287 285 284 284 283 283 281 279 278 275 272 271 270 268 268
286 284 281 280 280 283 285 284 285 288 289 291 291 289 290 290 288 287 286 286 286 282 281 282 282 284 287 287 288 286 283 282 282 282 282 281 281 280 276 274 275 273 270 268
285 283 280 278 280 281 282 283 284 285 286 288 290 289 287 287 285 284 284 285 285 285 284 283 283 283 285 286 287 286 284 282 280 280 281 282 283 280 277 275 273 272 271 271
283 282 280 277 276 278 280 280 280 281 282 285 288 291 287 284 283 283 283 284 284 284 284 283 284 284 285 286 287 287 283 282 279 279 279 279 281 282 279 277 275 273 272 270
280 279 278 277 276 277 280 279 280 281 283 285 287 287 284 282 282 282 283 284 283 283 284 284 283 283 282 284 285 287 283 282 280 280 279 279 279 278 278 277 278 278 275 271
278 277 276 277 275 275 276 278 281 281 284 285 286 285 284 282 282 282 283 284 284 283 283 283 283 283 283 283 285 285 283 282 281 280 279 279 278 277 276 277 278 279 276 273
276 276 275 276 277 276 276 279 281 282 284 286 286 285 283 282 284 285 285 284 283 283 283 283 283 282 283 284 285 285 282 281 279 278 278 279 279 278 277 278 279 279 276 274
275 276 275 274 275 277 277 281 281 282 283 285 286 287 285 285 287 288 288 287 286 284 283 282 283 282 282 283 284 284 284 282 280 278 277 278 279 279 278 279 280 279 278 276
275 275 274 274 274 275 279 279 279 281 283 283 283 284 285 287 289 290 292 293 292 289 286 284 282 282 282 282 282 282 284 283 282 280 279 279 278 278 278 278 278 277 277 278
274 276 276 275 276 277 278 278 279 281 282 281 282 284 285 286 288 291 292 293 294 293 290 287 284 282 283 283 283 283 284 283 282 282 280 280 279 277 278 279 278 278 277 278
273 275 277 278 278 279 280 280 280 282 281 282 282 282 284 285 286 288 288 289 290 291 291 289 286 284 283 284 283 283 283 282 281 281 280 279 279 279 280 280 279 278 278 279
272 273 276 277 279 280 282 283 283 283 284 282 282 283 283 285 286 287 289 288 287 288 289 288 286 286 284 283 283 282 281 281 281 280 280 278 278 278 278 279 279 278 278 277
273 274 275 275 277 280 283 283 283 283 283 282 282 282 283 284 286 287 287 288 287 287 287 287 286 286 285 284 284 284 282 282 281 281 281 280 278 278 278 278 278 279 278 277
274 275 274 275 277 279 280 282 284 284 284 284 283 283 283 285 286 287 287 287 287 287 285 285 285 285 285 285 285 284 283 283 282 282 282 281 280 279 278 278 279 279 278 276
272 272 273 274 275 278 279 280 282 283 284 285 284 284 284 286 287 287 287 287 287 286 285 283 284 285 285 285 286 285 285 285 284 283 283 283 282 281 280 279 279 278 277 276
270 270 271 272 274 275 278 280 282 283 284 284 285 286 287 287 287 287 287 287 286 285 284 284 283 283 284 284 285 285 285 285 285 284 284 283 282 281 280 280 279 278 278 278
271 270 271 272 273 275 277 280 282 284 284 285 285 285 286 287 287 287 287 286 286 285 285 284 284 285 284 284 284 284 285 286 286 285 285 285 284 282 281 280 280 279 279 279
Height
5835 5836 5834 5834 5834 5834 5833 5833 5833 5833 5832 5832 5832 5832 5832 5831 5831 5831 5831 5831 5831 5830 5830 5830 5830 5830 5829 5829 5829 5828 5828 5827 5827 5826 5826 5825 5824 5824 5823 5823 5822 5822 5822 5821
5834 5833 5833 5832 5832 5831 5831 5831 5830 5830 5829 5829 5829 5829 5829 5828 5828 5828 5828 5828 5827 5827 5827 5827 5827 5827 5826 5826 5826 5826 5825 5824 5824 5823 5822 5822 5821 5820 5819 5819 5818 5818 5818 5818
5832 5832 5830 5830 5829 5829 5829 5829 5828 5827 5827 5826 5826 5827 5826 5825 5825 5825 5825 5824 5824 5824 5824 5824 5824 5823 5824 5823 5823 5823 5822 5821 5821 5820 5819 5818 5817 5816 5816 5815 5814 5814 5814 5814
5830 5829 5828 5827 5827 5826 5826 5825 5825 5824 5824 5824 5824 5824 5824 5823 5822 5822 5822 5821 5821 5821 5821 5821 5821 5821 5820 5820 5820 5819 5818 5818 5817 5817 5816 5815 5813 5813 5812 5811 5811 5810 5810 5810
5828 5827 5826 5825 5825 5824 5823 5822 5822 5821 5821 5821 5821 5821 5822 5820 5819 5819 5819 5819 5819 5818 5818 5818 5817 5817 5817 5816 5816 5815 5815 5814 5814 5813 5812 5811 5810 5809 5808 5807 5807 5807 5806 5806
5825 5824 5824 5823 5822 5821 5820 5820 5819 5819 5819 5819 5819 5818 5819 5818 5817 5817 5816 5816 5815 5815 5815 5814 5814 5813 5813 5813 5812 5811 5811 5811 5810 5809 5808 5807 5806 5805 5804 5803 5803 5803 5803 5802
5822 5822 5821 5820 5819 5819 5818 5818 5817 5816 5816 5817 5816 5815 5816 5815 5815 5814 5814 5813 5812 5812 5812 5811 5811 5810 5810 5809 5808 5808 5807 5807 5806 5805 5804 5803 5802 5802 5801 5800 5799 5799 5799 5799
5820 5819 5818 5817 5817 5816 5816 5815 5816 5815 5814 5814 5813 5813 5814 5812 5812 5811 5811 5810 5810 5809 5809 5808 5807 5807 5806 5805 5804 5804 5803 5802 5801 5801 5800 5799 5798 5797 5797 5796 5795 5795 5795 5795
5817 5817 5815 5814 5814 5814 5813 5812 5812 5812 5811 5811 5811 5811 5811 5810 5809 5808 5808 5807 5807 5806 5805 5805 5804 5803 5803 5802 5801 5800 5799 5798 5797 5796 5795 5795 5794 5793 5793 5792 5791 5791 5790 5791
5813 5813 5813 5812 5811 5810 5810 5810 5809 5808 5807 5807 5808 5808 5808 5807 5806 5805 5804 5804 5803 5802 5801 5801 5801 5800 5799 5798 5797 5796 5795 5794 5793 5792 5791 5790 5790 5789 5788 5788 5787 5787 5787 5786
5810 5810 5810 5809 5807 5807 5807 5807 5806 5805 5805 5804 5804 5807 5805 5803 5802 5802 5801 5800 5799 5798 5797 5797 5796 5795 5795 5793 5793 5791 5790 5789 5788 5787 5787 5786 5785 5785 5784 5784 5783 5783 5782 5782
5806 5805 5805 5805 5804 5803 5803 5803 5802 5802 5802 5801 5801 5804 5801 5800 5799 5798 5797 5796 5795 5794 5793 5792 5792 5791 5790 5789 5788 5787 5785 5784 5783 5783 5782 5782 5781 5780 5780 5779 5779 5778 5778 5777
5801 5801 5801 5800 5802 5800 5799 5799 5798 5798 5798 5797 5797 5800 5797 5796 5795 5794 5793 5792 5791 5790 5789 5788 5787 5786 5785 5784 5783 5782 5781 5779 5778 5778 5777 5777 5776 5775 5774 5774 5773 5773 5772 5772
5797 5797 5797 5797 5796 5795 5795 5795 5794 5794 5793 5793 5793 5794 5793 5791 5790 5789 5788 5787 5786 5785 5784 5783 5782 5781 5780 5779 5778 5777 5775 5774 5773 5773 5772 5771 5771 5770 5769 5769 5768 5767 5767 5766
5793 5792 5792 5792 5791 5791 5791 5790 5790 5789 5789 5789 5789 5788 5788 5786 5786 5785 5784 5782 5781 5780 5779 5778 5777 5776 5775 5774 5772 5771 5770 5769 5768 5767 5766 5766 5765 5764 5764 5763 5762 5762 5761 5761
5788 5788 5787 5787 5787 5786 5786 5786 5786 5785 5784 5784 5783 5783 5782 5781 5780 5779 5778 5777 5775 5774 5773 5772 5771 5770 5769 5768 5767 5765 5764 5763 5762 5761 5760 5760 5759 5758 5758 5757 5756 5755 5755 5754
5784 5783 5783 5782 5782 5781 5782 5782 5781 5780 5779 5779 5779 5779 5777 5776 5775 5773 5772 5771 5769 5768 5767 5766 5765 5763 5762 5761 5760 5759 5758 5757 5756 5755 5754 5753 5752 5752 5751 5750 5750 5749 5748 5748
5779 5778 5778 5777 5777 5776 5780 5777 5776 5775 5775 5774 5773 5773 5772 5771 5769 5768 5766 5765 5763 5762 5760 5759 5758 5757 5756 5754 5753 5752 5751 5750 5749 5748 5747 5746 5746 5745 5744 5744 5743 5742 5742 5741
5773 5773 5772 5772 5771 5771 5772 5772 5770 5770 5770 5769 5768 5767 5766 5765 5764 5763 5761 5759 5757 5755 5754 5752 5751 5750 5749 5748 5746 5745 5744 5743 5742 5741 5740 5740 5739 5738 5737 5736 5736 5736 5735 5734
5768 5767 5768 5766 5765 5766 5767 5766 5764 5765 5764 5764 5762 5761 5760 5759 5759 5758 5755 5753 5751 5749 5748 5746 5744 5743 5742 5740 5739 5738 5737 5736 5735 5734 5733 5732 5731 5731 5730 5729 5728 5728 5727 5727
5762 5761 5761 5760 5759 5760 5760 5759 5758 5759 5759 5757 5755 5754 5753 5752 5752 5750 5748 5746 5744 5742 5741 5739 5738 5736 5734 5733 5732 5731 5730 5729 5728 5727 5726 5724 5724 5723 5722 5721 5720 5720 5720 5719
5755 5755 5755 5754 5753 5756 5753 5752 5752 5751 5750 5749 5748 5747 5746 5745 5744 5742 5740 5739 5737 5735 5734 5732 5730 5729 5727 5726 5725 5723 5722 5721 5720 5719 5718 5717 5716 5715 5714 5713 5713 5712 5711 5711
5748 5749 5748 5748 5750 5748 5746 5745 5744 5743 5742 5741 5741 5740 5738 5737 5736 5734 5732 5731 5729 5727 5726 5724 5723 5722 5720 5719 5717 5716 5715 5714 5712 5711 5710 5709 5708 5707 5705 5705 5704 5703 5702 5702
5741 5740 5740 5740 5741 5740 5739 5738 5737 5736 5735 5734 5733 5732 5730 5729 5728 5726 5724 5723 5721 5720 5718 5717 5715 5714 5713 5711 5710 5709 5707 5706 5705 5703 5702 5701 5699 5698 5697 5696 5695 5694 5693 5692
5734 5733 5732 5733 5733 5732 5732 5731 5730 5729 5728 5726 5725 5724 5722 5721 5719 5718 5716 5715 5713 5712 5710 5709 5708 5707 5705 5703 5702 5701 5699 5698 5696 5695 5693 5692 5690 5689 5687 5686 5685 5684 5684 5683
5726 5725 5725 5725 5725 5724 5725 5723 5722 5721 5720 5719 5717 5716 5714 5713 5711 5710 5708 5707 5706 5704 5703 5701 5700 5698 5697 5695 5693 5692 5691 5689 5687 5686 5684 5683 5681 5679 5678 5676 5675 5674 5673 5672